User: anonymous   Login
Location: Skalnate Pleso
(49.1889°N, 20.2450°E)
Time: 17:58:41
(UTC+02:00)
Language:

Iridium 45 - Orbit

View from above orbital plane
View from above orbital plane
View from above satellite
View from above satellite

Ground track
Ground track

The orbit data is extracted from the following two-line orbital elements,

1 25104U 97082A   16211.52206535  .00000063  00000-0  15607-4 0  9999
2 25104  86.3932  62.1403 0001039  76.6789 283.4522 14.34217187974124
Epoch (UTC): 29 July 2016 12:31:46
Eccentricity: 0.0001039
inclination: 86.3932°
perigee height: 777 km
apogee height: 778 km
right ascension of ascending node: 62.1403°
argument of perigee: 76.6789°
revolutions per day: 14.34217187
mean anomaly at epoch: 283.4522°
orbit number at epoch: 97412

The dashed part of the orbit path shows where the satellite is in the earth's shadow,  

DLR